| time (UTC) | temp C | wind direction | speed KPH | gust KPH | rain 1hr cm | rain 24hr cm | rain mn cm | humidity % | barometer mb |
| 20260505071548 | 15 | 215 | 0.0 | 0.0 | 0.00 | 0.00 | 0.00 | 66 | 1012.7 |
| 20260505071046 | 15 | 234 | 0.0 | 1.6 | 0.00 | 0.00 | 0.00 | 66 | 1012.6 |
| 20260505070543 | 15 | 226 | 0.0 | 0.0 | 0.00 | 0.00 | 0.00 | 66 | 1012.4 |
| 20260505070039 | 15 | 228 | 0.0 | 0.0 | 0.00 | 0.00 | 0.00 | 66 | 1012.5 |
| 20260505065535 | 15 | 225 | 0.0 | 0.0 | 0.00 | 0.00 | 0.00 | 66 | 1012.3 |
| 20260505065032 | 15 | 229 | 0.0 | 0.0 | 0.00 | 0.00 | 0.00 | 66 | 1012.5 |
| 20260505064528 | 15 | 221 | 0.0 | 0.0 | 0.00 | 0.00 | 0.00 | 67 | 1012.4 |
| 20260505064027 | 15 | 216 | 0.0 | 0.0 | 0.00 | 0.00 | 0.00 | 65 | 1012.6 |
| 20260505063524 | 16 | 203 | 0.0 | 0.0 | 0.00 | 0.00 | 0.00 | 65 | 1012.5 |
| 20260505063020 | 15 | 222 | 0.0 | 0.0 | 0.00 | 0.00 | 0.00 | 65 | 1012.4 |
| 20260505062517 | 15 | 225 | 0.0 | 0.0 | 0.00 | 0.00 | 0.00 | 66 | 1012.5 |
| 20260505062014 | 15 | 230 | 0.0 | 0.0 | 0.00 | 0.00 | 0.00 | 67 | 1012.6 |
| 20260505061512 | 15 | 208 | 0.0 | 1.6 | 0.00 | 0.00 | 0.00 | 68 | 1012.7 |
| 20260505061009 | 14 | 224 | 0.0 | 0.0 | 0.00 | 0.00 | 0.00 | 69 | 1012.4 |
| 20260505060506 | 13 | 225 | 0.0 | 0.0 | 0.00 | 0.00 | 0.00 | 71 | 1012.6 |
| 20260505060002 | 13 | 219 | 0.0 | 0.0 | 0.00 | 0.00 | 0.00 | 72 | 1012.6 |
| 20260505055458 | 13 | 220 | 0.0 | 0.0 | 0.00 | 0.00 | 0.00 | 72 | 1012.5 |
| 20260505054955 | 13 | 219 | 0.0 | 0.0 | 0.00 | 0.00 | 0.00 | 72 | 1012.5 |
| 20260505054453 | 14 | 219 | 0.0 | 0.0 | 0.00 | 0.00 | 0.00 | 71 | 1012.6 |
| 20260505053950 | 14 | 219 | 0.0 | 0.0 | 0.00 | 0.00 | 0.00 | 70 | 1012.6 |
| 20260505053447 | 15 | 220 | 0.0 | 0.0 | 0.00 | 0.00 | 0.00 | 69 | 1012.7 |
| 20260505052944 | 15 | 220 | 0.0 | 0.0 | 0.00 | 0.00 | 0.00 | 68 | 1012.6 |
| 20260505052441 | 15 | 224 | 0.0 | 0.0 | 0.00 | 0.00 | 0.00 | 69 | 1012.6 |
| 20260505051938 | 15 | 217 | 0.0 | 0.0 | 0.00 | 0.00 | 0.00 | 67 | 1012.7 |
| 20260505051435 | 15 | 219 | 0.0 | 0.0 | 0.00 | 0.00 | 0.00 | 66 | 1012.7 |
| 20260505050933 | 16 | 219 | 0.0 | 0.0 | 0.00 | 0.00 | 0.00 | 64 | 1012.8 |
| 20260505050431 | 16 | 218 | 0.0 | 0.0 | 0.00 | 0.00 | 0.00 | 63 | 1012.6 |
| 20260505041359 | 16 | 238 | 0.0 | 1.6 | 0.00 | 0.00 | 0.00 | 61 | 1012.7 |
| 20260505040856 | 15 | 264 | 0.0 | 0.0 | 0.00 | 0.00 | 0.00 | 62 | 1012.7 |
| 20260505040354 | 15 | 231 | 0.0 | 1.6 | 0.00 | 0.00 | 0.00 | 64 | 1012.8 |
| 20260505035850 | 15 | 223 | 0.0 | 0.0 | 0.00 | 0.00 | 0.00 | 65 | 1012.6 |
| 20260505035345 | 15 | 220 | 0.0 | 0.0 | 0.00 | 0.00 | 0.00 | 64 | 1012.5 |
| 20260505034844 | 15 | 217 | 0.0 | 0.0 | 0.00 | 0.00 | 0.00 | 63 | 1012.5 |
| 20260505034340 | 16 | 214 | 0.0 | 0.0 | 0.00 | 0.00 | 0.00 | 62 | 1012.5 |
| 20260505033837 | 16 | 205 | 0.0 | 0.0 | 0.00 | 0.00 | 0.00 | 61 | 1012.5 |
| 20260505033334 | 16 | 223 | 0.0 | 0.0 | 0.00 | 0.00 | 0.00 | 60 | 1012.8 |
| 20260505032832 | 16 | 223 | 0.0 | 0.0 | 0.00 | 0.00 | 0.00 | 59 | 1012.6 |
| 20260505032328 | 17 | 222 | 0.0 | 0.0 | 0.00 | 0.00 | 0.00 | 58 | 1012.7 |
| 20260505031825 | 17 | 225 | 0.0 | 0.0 | 0.00 | 0.00 | 0.00 | 56 | 1012.8 |
| 20260505031322 | 17 | 216 | 0.0 | 0.0 | 0.00 | 0.00 | 0.00 | 55 | 1012.5 |
| 20260505030819 | 17 | 221 | 0.0 | 0.0 | 0.00 | 0.00 | 0.00 | 54 | 1012.3 |
| 20260505030315 | 18 | 214 | 0.0 | 0.0 | 0.00 | 0.00 | 0.00 | 53 | 1012.5 |
| 20260505025810 | 18 | 226 | 0.0 | 0.0 | 0.00 | 0.00 | 0.00 | 53 | 1012.3 |
| 20260505025308 | 18 | 212 | 0.0 | 1.6 | 0.00 | 0.00 | 0.00 | 52 | 1012.4 |
| 20260505024807 | 18 | 233 | 0.0 | 0.0 | 0.00 | 0.00 | 0.00 | 52 | 1012.4 |
| 20260505024304 | 18 | 222 | 0.0 | 1.6 | 0.00 | 0.00 | 0.00 | 52 | 1012.7 |
| 20260505023801 | 18 | 215 | 0.0 | 0.0 | 0.00 | 0.00 | 0.00 | 51 | 1012.5 |
| 20260505023258 | 18 | 233 | 0.0 | 1.6 | 0.00 | 0.00 | 0.00 | 50 | 1012.7 |
| 20260505022755 | 18 | 231 | 0.0 | 1.6 | 0.00 | 0.00 | 0.00 | 51 | 1012.6 |
| 20260505022252 | 18 | 277 | 1.6 | 1.6 | 0.00 | 0.00 | 0.00 | 52 | 1012.6 |
| 20260505021749 | 18 | 211 | 0.0 | 0.0 | 0.00 | 0.00 | 0.00 | 53 | 1012.5 |
| 20260505021246 | 18 | 218 | 0.0 | 0.0 | 0.00 | 0.00 | 0.00 | 51 | 1012.4 |
| 20260505020742 | 18 | 214 | 0.0 | 0.0 | 0.00 | 0.00 | 0.00 | 50 | 1012.4 |
| 20260505020237 | 18 | 227 | 0.0 | 1.6 | 0.00 | 0.00 | 0.00 | 49 | 1012.3 |
| 20260505015734 | 19 | 200 | 0.0 | 1.6 | 0.00 | 0.00 | 0.00 | 49 | 1012.5 |
| 20260505015231 | 19 | 223 | 0.0 | 0.0 | 0.00 | 0.00 | 0.00 | 49 | 1012.4 |
| 20260505014728 | 19 | 146 | 4.8 | 4.8 | 0.00 | 0.00 | 0.00 | 48 | 1012.4 |
| 20260505014226 | 19 | 209 | 0.0 | 0.0 | 0.00 | 0.00 | 0.00 | 48 | 1012.3 |
| 20260505013722 | 20 | 193 | 0.0 | 1.6 | 0.00 | 0.00 | 0.00 | 47 | 1012.1 |
| 20260505013219 | 20 | 230 | 0.0 | 0.0 | 0.00 | 0.00 | 0.00 | 47 | 1012.0 |
| 20260505012718 | 20 | 225 | 0.0 | 0.0 | 0.00 | 0.00 | 0.00 | 47 | 1011.9 |
| 20260505012215 | 20 | 207 | 0.0 | 1.6 | 0.00 | 0.00 | 0.00 | 48 | 1011.8 |
| 20260505011710 | 20 | 244 | 0.0 | 1.6 | 0.00 | 0.00 | 0.00 | 47 | 1011.9 |
| 20260505011208 | 20 | 219 | 0.0 | 0.0 | 0.00 | 0.00 | 0.00 | 47 | 1011.9 |
| 20260505010703 | 20 | 216 | 0.0 | 0.0 | 0.00 | 0.00 | 0.00 | 46 | 1011.9 |
| 20260505010200 | 20 | 261 | 1.6 | 1.6 | 0.00 | 0.00 | 0.00 | 47 | 1012.0 |
| 20260505005656 | 20 | 166 | 0.0 | 1.6 | 0.00 | 0.00 | 0.00 | 46 | 1011.9 |
| 20260505005153 | 20 | 212 | 0.0 | 0.0 | 0.00 | 0.00 | 0.00 | 45 | 1011.7 |
| 20260505004650 | 20 | 223 | 0.0 | 0.0 | 0.00 | 0.00 | 0.00 | 45 | 1011.8 |
| 20260505004147 | 20 | 207 | 0.0 | 0.0 | 0.00 | 0.00 | 0.00 | 44 | 1011.7 |
| 20260505003644 | 20 | 191 | 0.0 | 1.6 | 0.00 | 0.00 | 0.00 | 43 | 1011.6 |
| 20260505003142 | 21 | 258 | 1.6 | 1.6 | 0.00 | 0.00 | 0.00 | 43 | 1011.8 |
| 20260505002637 | 21 | 0 | 1.6 | 3.2 | 0.00 | 0.00 | 0.00 | 43 | 1011.6 |
| 20260505002136 | 21 | 222 | 0.0 | 0.0 | 0.00 | 0.00 | 0.00 | 43 | 1011.7 |
| 20260505001633 | 21 | 176 | 1.6 | 3.2 | 0.00 | 0.00 | 0.00 | 42 | 1011.7 |
| 20260505001130 | 21 | 270 | 0.0 | 1.6 | 0.00 | 0.00 | 0.00 | 41 | 1011.8 |
| 20260505000627 | 21 | 268 | 1.6 | 1.6 | 0.00 | 0.00 | 0.00 | 41 | 1011.9 |
| 20260505000125 | 21 | 216 | 1.6 | 1.6 | 0.00 | 0.00 | 0.00 | 41 | 1011.6 |
| 20260504235621 | 21 | 236 | 0.0 | 1.6 | 0.00 | 0.00 | 0.00 | 41 | 1011.6 |
| 20260504235118 | 21 | 22 | 1.6 | 1.6 | 0.00 | 0.00 | 0.00 | 40 | 1011.6 |
| 20260504234615 | 21 | 198 | 0.0 | 1.6 | 0.00 | 0.00 | 0.00 | 40 | 1011.5 |
| 20260504234112 | 21 | 176 | 1.6 | 3.2 | 0.00 | 0.00 | 0.00 | 40 | 1011.3 |
| 20260504233608 | 21 | 200 | 0.0 | 1.6 | 0.00 | 0.00 | 0.00 | 40 | 1011.4 |
| 20260504233104 | 22 | 235 | 1.6 | 3.2 | 0.00 | 0.00 | 0.00 | 39 | 1011.2 |
| 20260504232602 | 22 | 248 | 0.0 | 0.0 | 0.00 | 0.00 | 0.00 | 40 | 1011.4 |
| 20260504232059 | 22 | 197 | 1.6 | 1.6 | 0.00 | 0.00 | 0.00 | 39 | 1011.3 |
| 20260504231555 | 22 | 169 | 1.6 | 1.6 | 0.00 | 0.00 | 0.00 | 39 | 1011.3 |
| 20260504231051 | 22 | 236 | 0.0 | 0.0 | 0.00 | 0.00 | 0.00 | 39 | 1011.3 |
| 20260504230547 | 22 | 27 | 3.2 | 3.2 | 0.00 | 0.00 | 0.00 | 39 | 1011.6 |
| 20260504230047 | 22 | 234 | 0.0 | 1.6 | 0.00 | 0.00 | 0.00 | 39 | 1011.4 |
| 20260504225543 | 22 | 207 | 1.6 | 1.6 | 0.00 | 0.00 | 0.00 | 38 | 1011.3 |
| 20260504225040 | 22 | 0 | 1.6 | 4.8 | 0.00 | 0.00 | 0.00 | 39 | 1011.4 |
| 20260504224537 | 22 | 147 | 1.6 | 1.6 | 0.00 | 0.00 | 0.00 | 38 | 1011.2 |
| 20260504224034 | 22 | 201 | 1.6 | 1.6 | 0.00 | 0.00 | 0.00 | 38 | 1011.3 |
| 20260504223531 | 22 | 258 | 1.6 | 1.6 | 0.00 | 0.00 | 0.00 | 37 | 1011.3 |
| 20260504223027 | 22 | 234 | 1.6 | 3.2 | 0.00 | 0.00 | 0.00 | 37 | 1011.5 |
| 20260504222524 | 22 | 234 | 1.6 | 3.2 | 0.00 | 0.00 | 0.00 | 38 | 1011.4 |
| 20260504222021 | 23 | 39 | 1.6 | 1.6 | 0.00 | 0.00 | 0.00 | 36 | 1011.2 |
| 20260504221518 | 23 | 264 | 0.0 | 1.6 | 0.00 | 0.00 | 0.00 | 35 | 1011.0 |
| 20260504221015 | 24 | 165 | 1.6 | 3.2 | 0.00 | 0.00 | 0.00 | 34 | 1011.0 |
| 20260504220512 | 24 | 189 | 1.6 | 3.2 | 0.00 | 0.00 | 0.00 | 35 | 1011.3 |
| 20260504220009 | 23 | 219 | 0.0 | 0.0 | 0.00 | 0.00 | 0.00 | 35 | 1011.3 |
| 20260504215505 | 23 | 205 | 0.0 | 1.6 | 0.00 | 0.00 | 0.00 | 34 | 1011.3 |
| 20260504215003 | 24 | 351 | 1.6 | 3.2 | 0.00 | 0.00 | 0.00 | 33 | 1011.1 |
| 20260504214458 | 24 | 315 | 1.6 | 1.6 | 0.00 | 0.00 | 0.00 | 34 | 1011.2 |
| 20260504213955 | 24 | 209 | 1.6 | 1.6 | 0.00 | 0.00 | 0.00 | 36 | 1011.4 |
| 20260504213451 | 24 | 26 | 3.2 | 3.2 | 0.00 | 0.00 | 0.00 | 33 | 1011.4 |
| 20260504212949 | 25 | 275 | 0.0 | 1.6 | 0.00 | 0.00 | 0.00 | 35 | 1011.3 |
| 20260504212444 | 25 | 251 | 1.6 | 1.6 | 0.00 | 0.00 | 0.00 | 34 | 1011.2 |
| 20260504211942 | 24 | 138 | 3.2 | 4.8 | 0.00 | 0.00 | 0.00 | 33 | 1011.4 |
| 20260504211438 | 23 | 212 | 0.0 | 1.6 | 0.00 | 0.00 | 0.00 | 37 | 1011.4 |
| 20260504210936 | 24 | 201 | 1.6 | 3.2 | 0.00 | 0.00 | 0.00 | 35 | 1011.4 |
| 20260504210433 | 25 | 208 | 0.0 | 1.6 | 0.00 | 0.00 | 0.00 | 34 | 1011.5 |
| 20260504205930 | 24 | 302 | 1.6 | 1.6 | 0.00 | 0.00 | 0.00 | 36 | 1011.3 |
| 20260504205427 | 24 | 162 | 3.2 | 8.0 | 0.00 | 0.00 | 0.00 | 34 | 1011.5 |
| 20260504204925 | 24 | 214 | 1.6 | 1.6 | 0.00 | 0.00 | 0.00 | 34 | 1011.5 |
| 20260504204423 | 24 | 127 | 1.6 | 1.6 | 0.00 | 0.00 | 0.00 | 33 | 1011.5 |
| 20260504203922 | 24 | 4 | 3.2 | 3.2 | 0.00 | 0.00 | 0.00 | 32 | 1011.3 |
| 20260504203420 | 24 | 241 | 0.0 | 1.6 | 0.00 | 0.00 | 0.00 | 37 | 1011.5 |
| 20260504202915 | 24 | 207 | 4.8 | 8.0 | 0.00 | 0.00 | 0.00 | 34 | 1011.7 |
| 20260504202412 | 24 | 350 | 3.2 | 3.2 | 0.00 | 0.00 | 0.00 | 34 | 1011.6 |
| 20260504201909 | 24 | 215 | 0.0 | 1.6 | 0.00 | 0.00 | 0.00 | 33 | 1011.6 |
| 20260504201406 | 24 | 359 | 3.2 | 3.2 | 0.00 | 0.00 | 0.00 | 34 | 1011.5 |
| 20260504200903 | 24 | 203 | 3.2 | 3.2 | 0.00 | 0.00 | 0.00 | 34 | 1012.0 |
| 20260504200400 | 24 | 9 | 3.2 | 3.2 | 0.00 | 0.00 | 0.00 | 35 | 1011.8 |
| 20260504195856 | 24 | 329 | 1.6 | 3.2 | 0.00 | 0.00 | 0.00 | 33 | 1011.8 |
| 20260504195352 | 24 | 289 | 3.2 | 4.8 | 0.00 | 0.00 | 0.00 | 34 | 1011.8 |
| 20260504194849 | 23 | 243 | 0.0 | 1.6 | 0.00 | 0.00 | 0.00 | 40 | 1012.1 |
| 20260504194345 | 23 | 164 | 1.6 | 3.2 | 0.00 | 0.00 | 0.00 | 35 | 1012.2 |
| 20260504193841 | 23 | 275 | 1.6 | 1.6 | 0.00 | 0.00 | 0.00 | 34 | 1012.0 |
| 20260504193338 | 23 | 233 | 1.6 | 1.6 | 0.00 | 0.00 | 0.00 | 37 | 1012.2 |
| 20260504192837 | 24 | 209 | 0.0 | 0.0 | 0.00 | 0.00 | 0.00 | 36 | 1012.4 |
| 20260504192335 | 23 | 98 | 0.0 | 3.2 | 0.00 | 0.00 | 0.00 | 38 | 1012.4 |
| 20260504191833 | 23 | 265 | 3.2 | 3.2 | 0.00 | 0.00 | 0.00 | 37 | 1012.5 |
| 20260504191330 | 23 | 269 | 3.2 | 3.2 | 0.00 | 0.00 | 0.00 | 35 | 1012.6 |
| 20260504190826 | 23 | 305 | 1.6 | 4.8 | 0.00 | 0.00 | 0.00 | 37 | 1012.5 |
| 20260504190322 | 23 | 217 | 1.6 | 1.6 | 0.00 | 0.00 | 0.00 | 35 | 1013.0 |
| 20260504185819 | 23 | 293 | 1.6 | 1.6 | 0.00 | 0.00 | 0.00 | 37 | 1013.0 |
| 20260504185316 | 23 | 186 | 1.6 | 3.2 | 0.00 | 0.00 | 0.00 | 35 | 1013.1 |
| 20260504184812 | 23 | 250 | 1.6 | 3.2 | 0.00 | 0.00 | 0.00 | 36 | 1013.0 |
| 20260504184308 | 23 | 359 | 1.6 | 1.6 | 0.00 | 0.00 | 0.00 | 35 | 1013.4 |
| 20260504183803 | 23 | 227 | 0.0 | 1.6 | 0.00 | 0.00 | 0.00 | 36 | 1013.4 |
| 20260504183301 | 23 | 218 | 1.6 | 1.6 | 0.00 | 0.00 | 0.00 | 36 | 1013.5 |
| 20260504182759 | 23 | 188 | 1.6 | 1.6 | 0.00 | 0.00 | 0.00 | 35 | 1013.5 |
| 20260504182255 | 23 | 299 | 3.2 | 3.2 | 0.00 | 0.00 | 0.00 | 38 | 1013.5 |
| 20260504181753 | 23 | 264 | 4.8 | 8.0 | 0.00 | 0.00 | 0.00 | 35 | 1013.7 |
| 20260504181250 | 22 | 235 | 0.0 | 1.6 | 0.00 | 0.00 | 0.00 | 37 | 1013.7 |
| 20260504180749 | 22 | 327 | 3.2 | 3.2 | 0.00 | 0.00 | 0.00 | 36 | 1013.7 |
| 20260504180248 | 22 | 254 | 1.6 | 3.2 | 0.00 | 0.00 | 0.00 | 40 | 1013.9 |
| 20260504175745 | 22 | 317 | 4.8 | 8.0 | 0.00 | 0.00 | 0.00 | 37 | 1014.0 |
| 20260504175241 | 22 | 355 | 3.2 | 4.8 | 0.00 | 0.00 | 0.00 | 35 | 1014.1 |
| 20260504174739 | 22 | 7 | 3.2 | 3.2 | 0.00 | 0.00 | 0.00 | 36 | 1014.0 |
| 20260504174237 | 22 | 234 | 3.2 | 4.8 | 0.00 | 0.00 | 0.00 | 34 | 1014.1 |
| 20260504173733 | 22 | 339 | 1.6 | 1.6 | 0.00 | 0.00 | 0.00 | 37 | 1014.0 |
| 20260504173230 | 22 | 285 | 1.6 | 3.2 | 0.00 | 0.00 | 0.00 | 37 | 1014.3 |
| 20260504172727 | 22 | 145 | 3.2 | 4.8 | 0.00 | 0.00 | 0.00 | 37 | 1014.3 |
| 20260504172224 | 22 | 258 | 1.6 | 1.6 | 0.00 | 0.00 | 0.00 | 41 | 1014.2 |
| 20260504171720 | 21 | 299 | 1.6 | 4.8 | 0.00 | 0.00 | 0.00 | 37 | 1014.3 |
| 20260504171217 | 21 | 296 | 1.6 | 1.6 | 0.00 | 0.00 | 0.00 | 40 | 1014.4 |
| 20260504170714 | 22 | 228 | 1.6 | 3.2 | 0.00 | 0.00 | 0.00 | 36 | 1014.7 |
| 20260504170211 | 22 | 270 | 3.2 | 3.2 | 0.00 | 0.00 | 0.00 | 37 | 1014.6 |
| 20260504160129 | 20 | 315 | 4.8 | 4.8 | 0.00 | 0.00 | 0.00 | 36 | 1015.3 |
| 20260504151057 | 20 | 245 | 1.6 | 1.6 | 0.00 | 0.00 | 0.00 | 37 | 1015.5 |
| 20260504150554 | 20 | 268 | 3.2 | 3.2 | 0.00 | 0.00 | 0.00 | 39 | 1015.7 |
| 20260504141014 | 18 | 176 | 3.2 | 3.2 | 0.00 | 0.00 | 0.00 | 42 | 1015.6 |
| 20260504140511 | 19 | 187 | 1.6 | 3.2 | 0.00 | 0.00 | 0.00 | 42 | 1015.8 |
| 20260504130435 | 14 | 312 | 1.6 | 1.6 | 0.00 | 0.00 | 0.00 | 51 | 1016.2 |
| 20260504110323 | 9 | 212 | 0.0 | 0.0 | 0.00 | 0.00 | 0.00 | 67 | 1016.6 |
| 20260504100240 | 8 | 212 | 0.0 | 1.6 | 0.00 | 0.00 | 0.00 | 68 | 1016.8 |
| 20260504081633 | 8 | 215 | 0.0 | 0.0 | 0.00 | 0.00 | 0.00 | 70 | 1017.1 |
| 20260504081130 | 8 | 226 | 0.0 | 0.0 | 0.00 | 0.00 | 0.00 | 69 | 1017.1 |
| 20260504080626 | 8 | 213 | 0.0 | 1.6 | 0.00 | 0.00 | 0.00 | 72 | 1017.0 |
| 20260504080123 | 8 | 222 | 0.0 | 0.0 | 0.00 | 0.00 | 0.00 | 72 | 1017.1 |